Theta_e
301 296 294 297 299 298 296 295 294 296 299 298 298 299 301 304 304 303 305 305 305 309 311 312 314 317 320 324 326 328 329 334 346 346 343 345 344 344 341 340 346 346 345 342
297 293 298 298 298 296 296 294 294 296 299 298 298 297 301 303 303 304 305 305 306 307 308 310 313 317 319 322 325 326 329 329 333 339 350 351 350 348 347 346 347 348 346 345
294 296 298 296 296 294 295 294 294 294 297 298 296 295 298 300 302 303 305 305 305 305 305 310 313 314 317 318 320 323 326 329 332 335 336 345 350 350 350 350 347 349 347 348
296 298 295 295 294 296 292 297 295 294 293 289 296 288 295 298 299 301 304 305 306 308 308 309 311 312 314 316 320 323 326 327 329 331 333 339 336 339 342 349 354 354 352 350
294 294 294 294 295 296 294 297 295 294 292 292 292 289 294 297 296 299 301 303 306 308 309 310 310 313 314 317 319 321 325 328 329 331 334 330 335 332 335 340 352 362 362 357
297 301 297 296 298 298 298 296 295 295 293 286 291 290 292 294 297 299 301 301 303 307 309 310 311 313 313 316 318 322 324 325 328 329 332 333 333 336 332 336 337 341 348 353
296 296 298 298 295 298 297 293 286 286 286 285 292 288 292 296 298 299 299 302 305 308 309 309 310 311 313 315 317 320 321 324 326 327 329 330 332 335 337 340 335 341 338 344
290 287 295 299 296 293 294 293 287 281 283 286 292 286 292 298 301 300 302 305 306 306 309 310 311 313 313 315 318 319 321 323 324 326 327 329 331 330 332 338 336 334 338 342
291 290 297 298 298 297 293 289 295 289 290 286 289 292 297 299 299 300 302 304 304 306 308 309 312 314 315 316 318 321 322 324 326 327 328 329 331 332 333 343 349 340 348 343
294 289 295 297 299 297 294 297 288 289 281 280 287 288 291 294 296 298 300 301 304 306 307 309 310 313 315 317 319 320 321 321 326 328 329 329 330 331 334 337 343 346 350 349
297 292 291 295 293 292 292 290 292 292 290 284 282 288 298 297 298 299 300 302 305 306 307 309 310 312 314 316 317 319 319 320 321 326 330 332 331 332 334 336 339 343 350 347
298 293 288 290 296 298 296 292 292 287 285 289 288 287 300 300 300 301 302 304 306 307 308 309 310 311 312 313 315 317 319 319 319 322 325 329 332 333 334 337 339 342 343 345
297 292 286 287 292 295 292 293 294 294 292 287 285 289 299 301 301 303 303 305 306 307 308 309 310 310 310 311 314 315 316 316 318 319 322 325 328 332 333 340 343 342 341 344
297 294 289 284 287 291 289 291 293 291 286 288 289 291 296 299 300 302 303 305 306 307 307 308 309 310 310 311 313 313 314 314 316 318 319 322 325 329 332 337 343 342 341 344
295 289 290 291 291 291 290 290 291 289 290 287 290 291 296 299 300 302 304 305 305 305 306 307 307 308 309 310 311 312 313 313 314 315 317 321 325 328 330 333 343 342 341 345
297 289 291 288 291 290 289 291 292 292 292 293 293 292 300 302 303 303 303 304 304 305 306 307 308 308 308 308 309 311 312 312 313 314 316 320 324 326 329 333 342 340 341 345
291 290 286 284 289 289 285 290 292 293 294 294 290 296 300 300 300 301 303 305 304 305 306 307 307 307 308 309 310 309 311 312 313 313 316 320 324 326 327 331 340 339 346 349
290 288 288 285 288 279 291 297 296 295 297 298 298 299 300 301 303 303 305 304 305 305 306 306 306 306 308 309 309 310 311 311 312 314 316 320 323 326 324 332 338 343 345 349
293 289 286 283 283 288 291 295 295 294 294 299 298 300 301 302 303 302 305 305 305 305 305 305 305 306 307 307 308 309 310 311 312 313 317 321 323 324 323 331 336 339 340 345
291 291 287 286 281 280 291 296 300 299 289 301 300 300 300 299 292 297 303 304 304 304 304 303 304 305 305 307 308 307 309 310 312 315 319 322 325 323 327 333 333 336 340 342
286 285 283 284 283 288 296 298 300 285 290 301 301 301 299 296 299 302 303 303 303 302 303 303 303 303 306 308 308 308 309 309 314 318 321 323 324 322 330 334 336 337 336 337
288 286 285 287 284 282 300 298 291 296 301 301 300 300 299 301 301 301 302 300 301 300 300 302 301 302 305 308 308 309 310 314 315 321 319 323 322 323 332 333 331 332 333 332
288 293 288 292 291 299 301 299 302 302 301 300 299 299 300 299 299 301 299 299 301 300 300 301 301 302 306 308 311 310 313 316 318 321 321 324 322 329 331 330 329 329 332 329
294 296 290 290 295 296 299 302 302 302 300 301 301 300 300 297 298 298 298 298 298 300 300 302 302 303 305 310 312 314 316 318 318 321 326 320 326 326 328 328 328 330 330 330
293 295 291 291 295 296 298 299 300 300 301 299 300 299 297 297 296 297 297 297 298 299 301 303 303 304 306 310 313 317 316 316 319 322 320 325 325 326 326 326 329 331 334 329
294 289 286 286 291 290 293 300 300 299 297 296 295 294 297 296 295 296 296 298 299 300 302 303 303 304 306 309 313 315 317 319 322 320 323 323 324 321 318 319 313 297 301 297
Wind_Speed
7 11 13 13 11 13 8 10 10 6 1 11 15 15 13 14 14 14 13 13 13 13 6 4 6 8 8 8 6 7 7 5 6 4 8 7 6 7 10 13 16 15 14 15
9 14 13 5 8 11 12 13 12 6 8 9 14 18 16 17 16 16 16 14 12 8 6 5 6 7 8 8 7 7 6 3 4 7 9 3 5 6 10 12 13 16 16 16
12 7 3 10 11 12 13 13 9 10 6 14 14 21 21 8 7 8 7 5 6 5 2 1 5 5 8 9 9 7 7 7 6 8 6 3 5 6 12 10 10 14 18 17
10 2 10 12 11 10 13 10 8 9 10 9 3 7 8 10 7 9 9 8 4 1 5 3 3 5 8 8 9 9 7 7 7 4 6 8 9 12 10 2 10 15 16 17
3 6 11 13 12 6 12 2 9 9 12 15 15 11 12 5 11 14 6 5 3 4 3 0 2 4 7 9 9 7 10 9 6 5 8 8 10 10 11 11 15 12 9 14
17 7 9 12 7 10 2 10 12 12 13 13 19 11 10 9 11 12 7 3 2 4 2 2 4 5 6 7 8 9 11 9 8 7 8 10 12 12 12 11 12 11 9 10
20 19 16 9 13 9 13 12 11 12 11 9 7 7 13 5 4 2 4 5 5 2 6 7 6 7 7 7 8 8 9 12 11 10 10 11 12 13 14 14 11 12 11 11
16 16 13 13 16 13 16 16 11 10 10 9 13 7 4 1 7 4 5 2 4 3 7 9 9 8 8 7 9 10 12 12 12 12 12 11 12 9 11 12 12 12 12 12
10 15 4 8 7 10 7 12 6 10 15 12 14 10 9 12 9 7 6 6 3 5 8 11 11 9 9 8 7 8 11 12 13 14 12 12 12 13 13 15 12 11 12 11
2 10 7 7 10 9 9 6 8 9 11 18 12 11 7 13 9 5 5 4 8 10 11 11 11 9 8 11 11 11 9 10 11 14 13 12 13 14 14 14 15 14 12 13
5 5 3 8 9 13 7 13 13 9 11 10 12 7 8 2 4 3 4 6 13 15 14 13 13 11 10 11 12 12 14 14 11 11 13 14 15 15 15 14 15 14 13 14
7 6 9 14 8 11 16 17 18 11 11 10 14 16 13 7 5 5 11 13 14 12 13 13 13 13 13 14 14 13 13 15 15 13 13 15 15 16 16 16 17 16 15 16
5 7 9 7 11 9 12 17 16 18 14 19 16 6 7 8 10 14 17 14 12 12 13 12 13 13 13 16 14 14 14 16 16 16 16 15 16 16 16 18 17 17 16 16
3 10 14 13 11 6 7 9 10 14 13 16 22 21 21 20 20 18 16 12 13 11 12 12 12 13 14 13 13 14 15 16 17 16 17 17 17 17 16 19 17 17 17 16
8 16 18 19 21 21 21 23 21 21 20 22 21 26 21 21 22 19 18 15 15 14 14 14 14 14 14 14 14 16 17 17 17 18 18 18 18 17 18 19 18 17 17 17
8 14 16 18 16 16 19 22 24 24 24 27 26 31 23 23 19 13 13 15 17 17 18 18 19 18 16 16 17 17 19 19 18 19 19 19 18 18 17 19 17 17 18 18
6 4 5 11 9 9 15 21 24 25 25 23 26 24 15 16 15 13 14 17 19 20 21 22 20 19 20 19 18 20 21 20 19 19 19 19 17 19 14 19 17 18 18 16
16 11 6 9 8 12 8 4 8 11 12 13 16 18 18 15 13 13 17 22 22 21 21 21 20 23 23 22 21 20 19 19 20 19 18 19 18 16 13 18 18 17 16 16
14 9 5 5 9 17 19 4 6 10 14 16 19 13 14 13 19 21 20 18 20 22 23 22 23 25 20 18 19 21 20 19 19 19 18 18 18 12 16 15 13 12 14 15
4 6 5 5 6 5 6 2 6 8 17 6 4 11 18 20 18 16 18 20 24 26 23 21 23 22 19 22 17 20 19 19 19 17 19 16 17 10 14 12 13 13 14 14
6 4 12 11 8 9 6 2 2 5 7 14 19 22 23 18 18 24 24 24 27 23 25 22 20 19 19 21 18 17 18 18 17 17 18 16 12 8 12 11 10 11 12 14
3 4 6 8 6 7 5 3 9 17 21 22 22 23 23 25 25 25 26 27 25 22 23 20 17 17 17 19 16 19 18 12 17 17 16 16 9 9 8 12 11 12 13 15
4 4 4 5 6 16 18 16 16 19 21 22 19 20 22 24 27 27 26 25 24 21 18 18 17 17 17 17 19 17 14 16 16 18 15 10 9 12 11 13 14 12 13 13
6 7 5 10 6 12 18 19 20 22 22 24 28 25 24 27 27 26 24 21 19 20 17 16 17 17 17 17 19 17 15 16 16 17 11 7 7 10 11 8 10 11 12 12
6 7 5 12 19 19 14 17 22 22 22 25 28 28 28 24 22 23 20 21 18 17 17 15 14 16 18 17 17 16 11 12 14 12 6 7 8 11 11 8 7 11 11 10
6 4 4 6 19 15 17 21 22 24 26 23 22 23 21 22 20 21 19 17 17 17 18 16 16 17 18 16 17 15 13 11 14 6 8 9 10 9 10 11 11 23 14 16
Wind_Direction
193 254 230 239 232 278 275 266 261 243 176 265 256 254 253 253 247 237 248 248 250 247 263 270 316 323 332 360 352 358 7 34 243 202 234 214 210 246 252 235 221 221 212 219
233 238 257 264 253 244 238 244 242 249 258 268 273 269 273 264 253 248 240 228 245 256 257 278 315 340 349 341 1 346 348 348 278 229 228 256 165 199 245 238 227 220 215 209
267 304 266 231 217 233 233 249 255 264 308 271 267 272 245 221 225 212 214 227 229 237 266 304 332 353 351 347 344 349 332 321 311 311 305 332 275 262 249 220 242 227 221 214
273 277 225 230 241 239 259 207 262 267 264 275 114 290 187 209 184 184 175 179 157 126 195 241 288 331 346 342 333 331 341 325 285 316 273 257 254 233 222 195 285 237 215 222
256 221 213 230 247 242 274 199 242 266 270 281 260 243 248 194 196 175 155 140 117 130 124 99 303 321 323 330 333 329 325 320 303 296 263 259 240 252 249 242 235 232 222 219
260 240 268 264 275 243 221 227 230 248 257 252 242 236 230 190 213 178 170 240 279 209 237 318 308 302 313 320 324 328 321 313 301 279 267 257 259 259 263 246 241 239 224 218
230 232 220 244 229 210 221 238 253 227 203 246 97 250 266 158 172 223 269 277 282 295 269 302 285 296 304 300 318 321 323 308 306 295 287 279 271 269 265 262 258 253 240 226
272 264 205 198 226 257 224 252 265 284 272 273 161 241 148 192 192 254 254 218 177 307 329 319 318 311 284 290 308 320 319 315 307 299 292 287 280 270 265 254 259 257 243 235
288 263 147 234 210 213 226 236 302 292 285 281 262 237 222 216 221 202 189 199 228 328 330 325 325 315 309 294 289 314 314 312 304 301 297 291 282 271 271 271 260 245 246 239
184 272 243 254 233 186 248 350 218 206 259 256 243 231 240 166 178 193 218 281 321 297 297 308 306 308 298 300 298 293 304 303 301 301 300 291 288 279 269 265 259 257 252 235
305 254 249 270 244 242 201 237 251 285 272 273 279 273 85 134 214 268 279 284 297 294 289 294 297 297 294 288 290 298 302 306 297 279 287 297 293 287 278 267 263 258 248 237
208 218 251 242 271 222 225 242 256 241 240 231 261 269 289 224 208 199 279 296 299 294 286 290 290 294 293 293 289 288 293 296 301 297 286 287 292 287 281 265 260 253 242 229
176 219 272 221 218 218 244 238 242 257 267 261 263 222 146 170 229 280 298 302 289 283 283 283 285 288 297 293 289 293 294 294 295 299 292 284 287 287 282 274 262 251 240 226
348 273 267 277 293 227 240 249 240 243 245 250 246 260 274 277 289 295 287 301 295 295 291 290 289 289 293 299 295 295 295 297 294 292 292 288 283 286 282 280 262 248 234 218
247 267 271 270 272 271 267 271 259 243 243 250 271 273 280 287 293 296 294 292 286 284 284 285 293 294 286 284 288 289 288 293 296 286 285 282 282 281 278 275 260 243 229 214
240 260 266 275 272 272 275 265 258 255 254 256 261 268 276 277 274 271 282 282 281 280 282 291 296 298 292 292 292 291 289 290 287 279 279 278 282 281 274 276 250 234 220 209
285 267 318 276 308 302 266 254 247 248 248 253 257 268 286 291 291 304 310 298 293 294 291 290 294 302 298 292 289 284 283 285 280 274 272 274 279 275 271 276 238 222 210 198
251 257 272 277 297 258 246 324 286 294 280 281 262 272 271 288 322 317 297 292 291 290 295 299 296 293 290 285 282 279 276 274 274 270 271 272 277 279 284 261 226 210 198 188
244 241 245 248 248 277 294 342 325 312 289 299 296 301 315 306 283 281 291 303 300 295 292 292 297 296 293 290 289 283 275 269 268 268 268 267 274 272 281 226 217 195 187 180
123 196 233 249 260 273 8 34 343 324 278 46 323 288 295 307 290 289 302 292 288 293 295 296 290 290 290 279 273 269 268 265 261 263 263 269 275 255 261 196 193 180 180 161
133 180 227 246 262 268 289 150 223 254 334 321 307 304 299 287 274 289 285 295 298 308 291 293 281 276 272 275 268 265 263 258 265 265 265 270 267 279 229 182 163 160 148 144
214 228 204 229 251 274 42 225 275 316 306 305 302 297 294 291 290 292 297 300 300 289 293 283 282 276 272 271 264 259 258 258 262 265 267 268 257 269 190 159 143 143 144 131
278 228 290 262 282 308 312 298 299 301 293 299 300 300 294 295 295 297 305 304 299 292 286 282 279 274 272 270 264 261 260 265 260 261 263 263 242 209 163 157 147 141 143 136
303 311 264 311 268 303 313 313 319 319 313 310 309 312 308 302 294 296 294 291 289 291 285 278 275 272 271 272 267 259 252 255 268 270 261 259 157 146 142 144 142 147 143 134
298 320 291 279 289 328 302 305 301 303 309 314 307 305 297 294 293 292 291 290 286 282 280 278 276 277 275 277 272 265 264 258 261 273 272 181 142 142 132 107 137 136 130 140
22 11 292 292 305 287 281 298 308 322 318 307 301 295 290 294 294 293 285 283 285 284 285 283 275 274 274 272 268 263 259 253 253 234 186 146 145 121 123 119 94 46 67 61